FW6181 Weather Reports


time (UTC)temp
C
wind
direction
speed
KPH
gust
KPH
rain 1hr
cm
rain 24hr
cm
rain mn
cm
humidity
%
barometer
mb
20260504081552 13 217 0.0 0.0 0.00 0.00 0.00 92 1017.1
20260504080109 13 217 0.0 0.0 0.00 0.00 0.00 91 1017.4
20260504050022 13 217 0.0 0.0 0.00 0.00 0.00 91 1018.6
20260504044522 13 217 0.0 0.0 0.00 0.00 0.00 91 1018.5
20260504043022 13 217 0.0 0.0 0.00 0.00 0.00 90 1018.5
20260504041521 13 217 0.0 0.0 0.00 0.00 0.00 89 1018.6
20260504040037 13 217 0.0 0.0 0.00 0.00 0.00 88 1018.5
20260504034523 14 217 0.0 0.0 0.00 0.00 0.00 87 1018.5
20260504033022 14 217 0.0 0.0 0.00 0.00 0.00 86 1018.6
20260504031520 15 217 0.0 0.0 0.00 0.00 0.00 84 1018.6
20260504030019 15 217 0.0 0.0 0.00 0.00 0.00 82 1018.5
20260504024517 15 217 0.0 0.0 0.00 0.00 0.00 81 1018.4
20260504023018 15 217 0.0 0.0 0.00 0.00 0.00 79 1018.3
20260504021517 16 217 0.0 0.0 0.00 0.00 0.00 78 1018.3
20260504020020 16 217 0.0 0.0 0.00 0.00 0.00 75 1017.9
20260504014523 16 217 0.0 0.0 0.00 0.00 0.00 73 1017.8
20260504013017 17 217 0.0 0.0 0.00 0.00 0.00 71 1017.8
20260504011516 18 217 0.0 0.0 0.00 0.00 0.00 67 1017.6
20260504010015 18 217 0.0 0.0 0.00 0.00 0.00 65 1017.5
20260504004515 20 217 0.0 0.0 0.00 0.00 0.00 58 1017.5
20260504003014 21 217 0.0 0.0 0.00 0.00 0.00 54 1017.3
20260504001514 21 224 0.0 0.0 0.00 0.00 0.00 52 1017.3
20260504000013 22 229 0.0 0.0 0.00 0.00 0.00 50 1017.3
20260503234511 22 229 0.0 1.6 0.00 0.00 0.00 47 1017.4
20260503233010 22 229 0.0 0.0 0.00 0.00 0.00 47 1017.5
20260503231509 22 207 0.0 8.0 0.00 0.00 0.00 47 1017.6
20260503230009 22 204 1.6 8.0 0.00 0.00 0.00 45 1017.6
20260503224508 23 165 0.0 6.4 0.00 0.00 0.00 46 1017.6
20260503223006 23 165 0.0 8.0 0.00 0.00 0.00 43 1017.8
20260503221507 23 208 0.0 9.7 0.00 0.00 0.00 43 1017.7
20260503220004 25 227 0.0 0.0 0.00 0.00 0.00 39 1018.0
20260503214500 24 210 0.0 6.4 0.00 0.00 0.00 40 1018.3
20260503213100 24 165 1.6 9.7 0.00 0.00 0.00 41 1018.5
20260503211559 24 127 0.0 4.8 0.00 0.00 0.00 40 1018.7
20260503210057 23 249 0.0 8.0 0.00 0.00 0.00 43 1018.8
20260503204555 23 143 6.4 16.1 0.00 0.00 0.00 41 1018.9
20260503203053 23 229 1.6 4.8 0.00 0.00 0.00 41 1019.1
20260503201553 23 195 1.6 11.3 0.00 0.00 0.00 44 1019.3
20260503200057 23 217 3.2 12.9 0.00 0.00 0.00 41 1019.5
20260503194550 23 155 1.6 9.7 0.00 0.00 0.00 41 1019.7
20260503193057 24 216 0.0 3.2 0.00 0.00 0.00 41 1020.0
20260503191554 24 160 0.0 9.7 0.00 0.00 0.00 41 1020.1
20260503190049 24 187 1.6 8.0 0.00 0.00 0.00 39 1020.3
20260503184548 24 221 0.0 4.8 0.00 0.00 0.00 38 1020.5
20260503183106 24 217 0.0 0.0 0.00 0.00 0.00 38 1020.8
20260503181614 25 192 0.0 4.8 0.00 0.00 0.00 38 1020.9
20260503180047 25 91 0.0 8.0 0.00 0.00 0.00 33 1021.1
20260503174544 25 53 0.0 1.6 0.00 0.00 0.00 35 1021.2
20260503173052 25 209 0.0 6.4 0.00 0.00 0.00 36 1021.3
20260503171543 24 81 1.6 6.4 0.00 0.00 0.00 36 1021.7